OPS 0054 (DMSP 5A F1)

导读

OPS 0054(DMSP 5A F1)是美国于1970年2月11日发射的国防气象卫星,属于美国DMSP军事气象卫星项目5A系列首星。作为世界早期专用军用极轨气象卫星,它运行于近地太阳同步轨道,搭载可见光、红外探测设备,可获取云图、陆地及海面温度、水汽等数据,为美军军事行动提供气象保障,同时部分数据向民间开放,是美国军用气象卫星体系发展中的重要节点。

Basic Information
目录编号:
4331
目录名称:
OPS 0054 (DMSP 5A F1)
国际标识:
1970-012A
轨道中心:
EARTH
卫星名称:
OPS 0054 (DMSP 5A F1)
卫星全名:
--
卫星状态:
在轨 (已飞行20607 天)
发射日期:
1970-02-11 UTC
国别 :
美国 (US)
星等 :
--
Orbit Information
数据来源 国际轨道数据 AOE轨道数据
星历时间 2026-07-14T11:00:21+0800
6小时前
查看轨道信息
2026-07-09T17:00:00+0800
5天前
查看轨道信息
半长轴 7154.375km 7154.369km
偏心率 0.0056157 0.0056028
轨道倾角 99.010° 99.010°
近地点辐角 250.338° 264.576°
升交点赤经 14.857° 9.905°
平近点角 109.174° 55.080°
近地点 736.061km 736.147km
远地点 816.415km 816.317km
周期 100.373分钟 100.373分钟
每日圈数 14.346478 14.346495
Detailed Information
使用方式:
暂无
2D Orbit Map
3D Orbit Map
Orbit Altitude Analysis Chart
Orbit Inclination Analysis Chart
Orbit Comprehensive Analysis Chart
View Comprehensive Chart